Regional Weather Roundup
Issued by NWS

Home | Current Version | Previous Version | Graphics & Text | Print | Product List | Glossary Off
Versions: 1 2 3 4 5 6 7 8 9 10 11 12 13 14 15 16 17 18 19 20 21 22 23 24 25 26 27 28 29 30 31 32 33 34 35 36 37 38 39 40 41 42 43 44 45 46 47 48 49 50

334
ASUS43 KMPX 190201
RWRMN
WEATHER ROUNDUP FOR MINNESOTA
NATIONAL WEATHER SERVICE TWIN CITIES/CHANHASSEN MN
800 PM CST WED JAN 18 2017


NOTE: "FAIR" INDICATES FEW OR NO CLOUDS BELOW 12,000 FEET WITH NO
SIGNIFICANT WEATHER AND/OR OBSTRUCTIONS TO VISIBILITY. N/A MEANS
CURRENT SKY AND/OR WEATHER CONDITIONS ARE NOT AVAILABLE.

MNZ060>063-068>070-190300-
   Twin Cities Metro

CITY           SKY/WX    TMP DP  RH WIND       PRES   REMARKS
TWIN CITIES    CLOUDY    33  29  85 SE6       29.85F WCI  28
ST PAUL        CLOUDY    32  31  96 SE6       29.87F WCI  26
CRYSTAL        CLOUDY    34  29  82 SE5       29.83F WCI  30
BLAINE         CLEAR     36  34  93 SE7       29.84F
LAKEVILLE      CLOUDY    34  34 100 S5        29.85F WCI  30
EDEN PRAIRIE   CLOUDY    35  31  85 S9        29.83F WCI  28
SOUTH ST PAUL  CLOUDY    33  32  96 SE5       29.86F WCI  28
LAKE ELMO      FAIR      32  32 100 S6        29.87S WCI  26
$$
MNZ001>005-007-008-013>017-022>024-027-028-190300-
   Northwest Minnesota

CITY           SKY/WX    TMP DP  RH WIND       PRES   REMARKS
BEMIDJI        CLOUDY    33  24  71 S6        29.73S WCI  27
HALLOCK        CLOUDY    27  23  86 S18       29.64F WCI  13
ROSEAU         CLOUDY    28  23  80 S8        29.67F WCI  20
WARROAD        CLOUDY    30  25  80 S3        29.68F
THIEF RVR FALL CLOUDY    28  23  81 S12       29.69F WCI  18
CROOKSTON      CLOUDY    30  25  80 S15       29.70S WCI  19
FOSSTON        CLOUDY    25  19  80 S12       29.71F WCI  14
DETROIT LAKES  CLOUDY    32  27  80 S8        29.74S WCI  25
MOORHEAD       CLOUDY    27  23  86 SE9       29.73S WCI  17
PARK RAPIDS    CLOUDY    26  19  74 S6        29.74S WCI  19
MAHNOMEN       FAIR      28  21  77 S7        29.72S WCI  20
$$
MNZ006-009>011-018-025>026-190300-
   North Central Minnesota

CITY           SKY/WX    TMP DP  RH WIND       PRES   REMARKS
BAUDETTE       CLOUDY    28  21  75 SE6       29.69S WCI  22
FLAG ISLAND    CLOUDY    25  19  80 S9        29.67S WCI  15
INTL FALLS     CLOUDY    25  20  81 CALM      29.72F
WASKISH        CLOUDY    32  27  80 S3        29.71F
BIG FORK       CLOUDY    32  23  69 S7        29.75R WCI  26
LONGVILLE      CLOUDY    30  25  80 CALM      29.76S
GRAND RAPIDS   CLOUDY    31  25  78 S5        29.79R WCI  26
CRANE LAKE     CLOUDY    21  19  93 CALM      29.76F
ORR            CLOUDY    34  23  64 CALM      29.73S
COOK           CLOUDY    34  25  69 S5        29.76S WCI  30
WALKER         FAIR      35  24  64 S6        29.75S WCI  30
$$
MNZ012-019>021-037-190300-
   Northeast Minnesota

CITY           SKY/WX    TMP DP  RH WIND       PRES   REMARKS
DULUTH         CLOUDY    35  26  69 SW9       29.79S WCI  28
ELY            CLOUDY    27  23  86 CALM      29.76S
HIBBING        PTCLDY    28  23  81 CALM      29.77S
EVELETH        CLOUDY    29  25  82 CALM      29.79S
DULUTH HARBOR  CLOUDY    34  28  80 CALM      29.83S
TWO HARBORS    CLOUDY    37  28  70 W7        29.78S
SILVER BAY     CLOUDY    28  27  93 CALM      29.77F
GRAND MARAIS     N/A     30  27  88 N3        29.80S
G MARAIS ARPRT CLOUDY    27  23  86 CALM      29.78R FOG
$$
MNZ029>031-032-039>041-046>048-054>057-064-190300-
   West Central Minnesota

CITY           SKY/WX    TMP DP  RH WIND       PRES   REMARKS
FERGUS FALLS   CLOUDY    30  25  80 SE9       29.79S WCI  22
WHEATON        CLEAR     36  32  87 SE10      29.76S
MORRIS         CLOUDY    30  28  93 SE9       29.74F WCI  22
ALEXANDRIA     CLEAR     30  26  85 S6        29.77S WCI  24
ELBOW LAKE     FAIR      31  28  86 E9        29.75S WCI  23
WADENA         CLOUDY    28  23  80 SE3       29.75S
GLENWOOD       CLOUDY    28  28 100 SE5       29.77F WCI  23
APPLETON       CLOUDY    34  28  80 S7        29.76F WCI  28
ORTONVILLE     CLOUDY    28  25  86 CALM      29.74F
MADISON        CLOUDY    30  27  86 SE8       29.75F WCI  23
WILLMAR        FAIR      28  28 100 SE7       29.80F WCI  21
$$
MNZ033>034-036-042>043-049>051-058-059-190300-
   Central Minnesota

CITY           SKY/WX    TMP DP  RH WIND       PRES   REMARKS
ST CLOUD       CLOUDY    30  29  96 SE6       29.81F WCI  24
SAUK CENTRE    FAIR      29  28  95 SE5       29.78F WCI  24
PAYNESVILLE    CLOUDY    32  32 100 S9        29.79F WCI  24
AITKIN         CLOUDY    30  21  69 CALM      29.77F
PINE RIVER     CLOUDY    28  23  80 SE3       29.81R
BRAINERD       CLEAR     30  25  81 S9        29.78S WCI  22
STAPLES        CLEAR     28  25  86 S5        29.76F WCI  23
LONG PRAIRIE   FAIR      28  27  93 SE6       29.78S WCI  22
LITTLE FALLS   CLOUDY    32  28  86 SE3       29.79F
LITCHFIELD     CLOUDY    34  32  93 CALM      29.80F
BUFFALO        CLOUDY    32  30  92 CALM      29.83F
MAPLE LAKE     CLOUDY    32  31  96 SE5       29.82F WCI  27
HUTCHINSON     CLOUDY    32  31  98 SE5       29.82F FOG     WCI  27
$$
MNZ037-044-045-052-053-190300-
   East Central Minnesota

CITY           SKY/WX    TMP DP  RH WIND       PRES   REMARKS
PRINCETON      CLOUDY    34  28  80 SE3       29.83S
MORA           CLOUDY    32  27  80 CALM      29.85S
CAMBRIDGE      CLOUDY    36  28  75 S5        29.81F
RUSH CITY      CLOUDY    32  28  86 S5        29.84S WCI  27
MOOSE LAKE     CLOUDY    32  27  80 S3        29.79F
HINCKLEY       FAIR      28  28 100 S3        29.83S
CLOQUET        CLOUDY    34  25  69 S6        29.79F WCI  29
MCGREGOR       CLOUDY    30  27  86 S3        29.79F
$$
MNZ071>073-080-081-089-090-097-098-190300-
   Southwest Minnesota

CITY           SKY/WX    TMP DP  RH WIND       PRES   REMARKS
MONTEVIDEO     CLOUDY    30  28  93 S6        29.79F WCI  24
GRANITE FALLS  CLOUDY    32  31  94 E3        29.79F
CANBY          CLOUDY    42  37  82 SW15G23   29.74F
MARSHALL       CLOUDY    38  35  89 SW18      29.75F
REDWOOD FALLS  CLOUDY    34  31  88 SE9       29.79F WCI  27
OLIVIA         CLOUDY    32  30  93 SE6       29.79F WCI  26
PIPESTONE      CLEAR     37  36  93 S12       29.77F
WINDOM         CLEAR     37  36  93 S9        29.81F
WORTHINGTON    CLEAR     39  35  86 S17       29.81S
JACKSON        CLEAR     36  34  93 S14       29.83S
TRACY          CLEAR     38  36  91 S15G22    29.77S
SLAYTON        CLEAR     35  34  96 S6        29.80S WCI  30
$$
MNZ065>067-074>077-082>085-091>093-190300-
   South Central Minnesota

CITY           SKY/WX    TMP DP  RH WIND       PRES   REMARKS
MANKATO        CLEAR     36  34  92 S10       29.84F
NEW ULM        CLEAR     36  34  93 S10       29.82F
ST JAMES       CLEAR     36  36 100 S13       29.83F
FAIRMONT       CLEAR     35  34  96 S9        29.85F WCI  28
GLENCOE        CLOUDY    35  35  99 S5        29.82F WCI  31
FARIBAULT      CLEAR     34  32  93 S8        29.87S WCI  27
OWATONNA         N/A     36  32  87 S14       29.87S
WASECA         CLEAR     36  34  93 S14       29.87F
ALBERT LEA     CLEAR     36  36 100 S8        29.88F
$$
MNZ078>079-086>088-094>096-190300-
   Southeast Minnesota

CITY           SKY/WX    TMP DP  RH WIND       PRES   REMARKS
ROCHESTER      CLEAR     32  32 100 S16       29.89F WCI  21
RED WING       CLOUDY    36  30  80 CALM      29.89S
STANTON        CLOUDY    36  32  85 S9        29.85S
DODGE CENTER   CLEAR     32  30  93 S16       29.87F WCI  21
WINONA         CLOUDY    34  32  93 CALM      29.94F
AUSTIN         CLOUDY    34  30  86 S8        29.90F FOG     WCI  27
PRESTON        FOG       32  32  99 S16       29.92F VSB 1   WCI  21
$$
ABBREVIATIONS USED IN REMARKS
   TC - TEMPERATURES IN CELSIUS
  WCI - WIND CHILL INDEX
   HX - HEAT INDEX
  VSB - VISIBILITY
$$




USA.gov is the U.S. government's official web portal to all federal, state and local government web resources and services.